#timestamp,LO_Frequency,Hit,StdDev 
1629144015.4,286047003.9,N
1629144035.3,286047004.2,N
1629144055.1,286047003.8,N
1629144075.9,286047005.5,N
1629144095.7,286047003.3,N
1629144115.5,286047006.0,N
1629144135.4,286047005.6,N
1629144155.2,286047004.9,N
1629144175.0,286047004.5,N
1629144175.9,286047004.5,N
1629144195.8,286047007.2,Y
1629144215.6,286047004.3,P
1629144235.5,286047004.4,P
1629144255.3,286047002.3,P
1629144275.1,286047002.3,N
1629144295.9,286047001.5,N
1629144315.7,286047002.4,N
1629144335.6,286047001.7,N
1629144355.4,286047002.2,N
1629144375.2,286047002.2,N
1629144395.1,286047002.1,N
1629144396.0,286047002.1,N
1629144415.8,286047001.6,N
1629144435.7,286047001.4,N
1629144455.5,286047001.4,N
1629144475.3,286047001.6,N
1629144495.2,286047004.4,Y
1629144515.0,286047002.8,P
1629144515.9,286047002.8,P
1629144535.8,286047000.1,N
1629144555.6,286047000.1,N
1629144575.4,286047002.6,N
1629144595.3,286046999.8,N
1629144615.1,286047001.5,N
1629144635.8,286047001.9,N
1629144655.7,286047001.8,N
1629144675.5,286047002.6,N
1629144695.4,286047000.5,N
1629144715.2,286047002.4,N
1629144735.0,286047002.6,N
1629144735.9,286047002.6,N
1629144755.8,286047002.3,N
1629144775.6,286047002.5,N
1629144795.4,286047002.1,N
1629144815.3,286047004.4,Y
1629144835.1,286047000.2,P
1629144855.9,286047000.3,N
1629144875.7,286047000.5,N
1629144895.6,286047000.3,N
1629144915.4,286046999.9,N
1629144935.2,286046999.8,N
1629144955.1,286047000.1,N
1629144956.0,286047000.1,N
1629144975.8,286047000.3,N
1629144995.6,286047001.2,N
1629145015.5,286046998.3,Y
1629145035.3,286046998.9,P
1629145055.2,286046998.3,N
1629145075.9,286046998.9,N
1629145095.7,286046998.9,N
1629145115.6,286046998.9,N
1629145135.4,286046998.5,N
1629145155.2,286046998.1,Y
1629145175.1,286047000.1,P
1629145176.0,286047000.1,N
1629145195.8,286047000.4,N
1629145215.7,286047000.0,N
1629145235.5,286047000.7,N
1629145255.3,286047000.5,N
1629145275.2,286047000.8,N
1629145295.0,286047000.6,N
1629145295.9,286047000.6,N
1629145315.8,286047000.6,N
1629145365.6,286046998.3,E
1629145375.5,286047000.5,N
1629145395.4,286047001.6,P
1629145415.2,286047001.3,N
1629145435.1,286047001.8,Y
1629145436.0,286047001.8,P
1629145455.8,286046999.8,N
1629145475.6,286047000.4,N
1629145495.5,286046999.7,N
1629145515.3,286047002.8,Y
1629145535.1,286047002.3,P
1629145555.9,286047000.1,N
1629145575.7,286046999.8,N
1629145595.6,286047002.7,N
1629145615.4,286046999.7,N
1629145635.2,286047000.1,N
1629145655.1,286047000.2,N
1629145656.0,286047000.2,N
1629145675.8,286047000.1,N
1629145695.7,286047000.3,N
1629145715.5,286047000.9,N
1629145735.3,286047000.6,N
1629145755.2,286047000.9,N
1629145775.9,286047000.6,N
1629145795.7,286047000.7,N
1629145815.6,286046998.6,N
1629145835.4,286046998.1,N
1629145855.3,286046998.2,N
1629145875.1,286047001.0,N
1629145876.0,286047001.0,N
1629145895.8,286047000.8,N
1629145915.7,286047000.8,N
1629145935.5,286047000.7,N
1629145955.3,286047000.8,N
1629145975.2,286047000.4,N
1629145995.0,286047000.1,N
1629145995.9,286047000.1,N
1629146015.8,286047000.7,N
1629146035.6,286047000.1,N
1629146055.4,286047000.2,N
1629146075.3,286046999.9,N
1629146095.1,286047000.1,N
1629146115.9,286047000.6,N
1629146135.7,286047000.4,N
1629146155.5,286047001.1,N
1629146175.4,286046998.8,N
1629146195.2,286046999.2,N
1629146215.0,286046999.0,N
1629146215.9,286046999.0,N
1629146235.8,286046999.0,N
1629146255.6,286046998.3,N
1629146275.5,286047000.7,N
1629146295.3,286047000.6,N
1629146315.1,286046998.1,N
1629146335.9,286047000.6,N
1629146355.7,286047000.6,N
1629146375.6,286047000.3,N
1629146395.4,286047000.7,N
1629146415.2,286047001.1,N
1629146435.1,286047001.0,N
1629146436.0,286047001.0,N
1629146455.8,286046998.5,N
1629146475.6,286046998.1,N
1629146495.5,286046998.1,N
1629146515.3,286046998.2,N
1629146535.2,286046998.2,N
1629146555.9,286047000.3,N
1629146575.7,286046998.5,N
1629146595.6,286047001.0,N
1629146615.4,286046998.5,N
1629146635.2,286046999.3,N
1629146655.1,286046999.4,N
1629146656.0,286046999.4,N
1629146675.8,286046999.6,N
1629146695.7,286046996.9,N
1629146715.5,286046999.5,N
1629146735.3,286046997.4,N
1629146755.2,286046996.9,N
1629146775.0,286046999.1,N
1629146775.9,286046999.1,N
1629146795.7,286046997.3,N
1629146815.6,286046997.9,N
1629146835.4,286046995.4,Y
1629146855.3,286046996.8,P
1629146875.1,286046997.3,N
1629146876.0,286046997.3,N
1629146895.8,286046999.5,N
1629146915.7,286046999.2,N
1629146935.5,286046998.7,N
1629146955.3,286046998.2,N
1629146975.2,286046998.5,N
1629146995.0,286047000.9,N
1629146995.9,286047000.9,N
1629147015.8,286047001.2,N
1629147035.6,286047000.8,N
1629147055.4,286047000.5,N
1629147075.3,286047000.0,N
1629147095.1,286047001.1,N
1629147115.9,286046998.1,N
1629147135.7,286047001.2,N
1629147155.5,286047001.1,N
1629147175.4,286047000.6,N
1629147195.2,286047001.2,N
1629147215.0,286046997.0,N
1629147215.9,286046997.0,N
1629147235.8,286046999.1,N
1629147255.6,286046997.8,N
1629147275.5,286046997.5,N
1629147295.3,286046995.4,N
1629147315.1,286046995.8,N
1629147335.9,286046995.1,N
1629147355.7,286046995.3,N
1629147375.5,286046995.5,N
1629147395.4,286046996.3,N
1629147415.2,286046996.0,N
1629147435.0,286046993.3,Y
1629147436.0,286046993.3,P
1629147455.8,286046998.0,N
1629147475.6,286046995.4,N
1629147495.5,286046997.4,N
1629147515.3,286046997.8,N
1629147535.1,286046999.1,N
1629147555.9,286046996.7,N
1629147575.7,286046996.6,N
1629147595.5,286046999.4,N
